Time,TemperatureF,DewpointF,PressureIn,WindDirection,WindDirectionDegrees,WindSpeedMPH,WindSpeedGustMPH,Humidity,HourlyPrecipIn,Conditions,Clouds,dailyrainin,SoftwareType,DateUTC
2013-02-02 00:14:00,10.4,4.0,30.37,SSW,200,1.0,6.0,75,0.00,,,0.00,weatherlink.com 1.10,2013-02-02 05:14:00,
2013-02-02 00:29:00,10.3,4.0,30.37,West,262,3.0,4.0,75,0.00,,,0.00,weatherlink.com 1.10,2013-02-02 05:29:00,
2013-02-02 00:45:00,10.1,4.0,30.36,WSW,256,0.0,3.0,76,0.00,,,0.00,weatherlink.com 1.10,2013-02-02 05:45:00,
2013-02-02 00:59:00,10.0,4.0,30.36,West,281,0.0,3.0,77,0.00,,,0.00,weatherlink.com 1.10,2013-02-02 05:59:00,
2013-02-02 01:14:00,10.0,4.0,30.36,West,275,0.0,3.0,77,0.00,,,0.00,weatherlink.com 1.10,2013-02-02 06:14:00,
2013-02-02 01:30:00,10.4,5.0,30.36,SSW,208,1.0,5.0,78,0.00,,,0.00,weatherlink.com 1.10,2013-02-02 06:30:00,
2013-02-02 01:45:00,10.6,5.0,30.36,ENE,59,2.0,7.0,77,0.00,,,0.00,weatherlink.com 1.10,2013-02-02 06:45:00,
2013-02-02 02:00:00,10.7,5.0,30.35,WSW,243,1.0,6.0,77,0.00,,,0.00,weatherlink.com 1.10,2013-02-02 07:00:00,
2013-02-02 02:15:00,10.7,5.0,30.35,West,265,0.0,4.0,77,0.00,,,0.00,weatherlink.com 1.10,2013-02-02 07:15:00,
2013-02-02 02:30:00,10.6,5.0,30.35,WNW,286,0.0,3.0,78,0.00,,,0.00,weatherlink.com 1.10,2013-02-02 07:30:00,
2013-02-02 02:45:00,10.7,5.0,30.35,SW,219,2.0,5.0,78,0.00,,,0.00,weatherlink.com 1.10,2013-02-02 07:45:00,
2013-02-02 03:00:00,10.9,5.0,30.34,SW,226,0.0,4.0,77,0.00,,,0.00,weatherlink.com 1.10,2013-02-02 08:00:00,
2013-02-02 03:15:00,11.0,5.0,30.34,WSW,242,0.0,2.0,77,0.00,,,0.00,weatherlink.com 1.10,2013-02-02 08:15:00,
2013-02-02 03:30:00,11.0,5.0,30.33,WSW,238,1.0,4.0,77,0.00,,,0.00,weatherlink.com 1.10,2013-02-02 08:30:00,
2013-02-02 03:45:00,11.0,5.0,30.33,West,271,1.0,6.0,77,0.00,,,0.00,weatherlink.com 1.10,2013-02-02 08:45:00,
2013-02-02 04:00:00,10.9,5.0,30.33,West,275,0.0,6.0,77,0.00,,,0.00,weatherlink.com 1.10,2013-02-02 09:00:00,
2013-02-02 04:15:00,10.6,5.0,30.33,SSW,209,4.0,7.0,77,0.00,,,0.00,weatherlink.com 1.10,2013-02-02 09:15:00,
2013-02-02 04:30:00,10.3,4.0,30.33,WSW,254,0.0,4.0,77,0.00,,,0.00,weatherlink.com 1.10,2013-02-02 09:30:00,
2013-02-02 04:45:00,10.1,5.0,30.32,SSW,205,0.0,4.0,78,0.00,,,0.00,weatherlink.com 1.10,2013-02-02 09:45:00,
2013-02-02 05:00:00,9.9,4.0,30.32,WNW,284,0.0,5.0,78,0.00,,,0.00,weatherlink.com 1.10,2013-02-02 10:00:00,
2013-02-02 05:15:00,9.8,5.0,30.32,SSW,198,1.0,3.0,79,0.00,,,0.00,weatherlink.com 1.10,2013-02-02 10:15:00,
2013-02-02 05:30:00,9.7,5.0,30.32,SW,232,0.0,1.0,80,0.00,,,0.00,weatherlink.com 1.10,2013-02-02 10:30:00,
2013-02-02 05:45:00,9.8,5.0,30.31,SW,231,0.0,2.0,80,0.00,,,0.00,weatherlink.com 1.10,2013-02-02 10:45:00,
2013-02-02 06:00:00,9.9,5.0,30.30,SW,227,0.0,2.0,80,0.00,,,0.00,weatherlink.com 1.10,2013-02-02 11:00:00,
2013-02-02 06:15:00,10.2,5.0,30.30,SW,228,0.0,3.0,80,0.00,,,0.00,weatherlink.com 1.10,2013-02-02 11:15:00,
2013-02-02 06:30:00,10.4,5.0,30.30,West,263,1.0,3.0,80,0.00,,,0.00,weatherlink.com 1.10,2013-02-02 11:30:00,
2013-02-02 06:45:00,10.7,6.0,30.30,SW,223,1.0,3.0,80,0.00,,,0.00,weatherlink.com 1.10,2013-02-02 11:45:00,
2013-02-02 07:00:00,10.8,6.0,30.30,SSW,209,1.0,5.0,79,0.00,,,0.00,weatherlink.com 1.10,2013-02-02 12:00:00,
2013-02-02 07:15:00,11.1,6.0,30.29,WSW,258,1.0,4.0,79,0.00,,,0.00,weatherlink.com 1.10,2013-02-02 12:15:00,
2013-02-02 07:30:00,11.3,6.0,30.29,West,277,1.0,5.0,79,0.00,,,0.00,weatherlink.com 1.10,2013-02-02 12:30:00,
2013-02-02 07:45:00,11.5,6.0,30.29,WNW,287,3.0,7.0,78,0.00,,,0.00,weatherlink.com 1.10,2013-02-02 12:45:00,
2013-02-02 08:01:00,11.8,6.0,30.28,WSW,238,1.0,4.0,78,0.00,,,0.00,weatherlink.com 1.10,2013-02-02 13:01:00,
2013-02-02 08:15:00,12.2,7.0,30.28,SW,230,1.0,9.0,78,0.00,,,0.00,weatherlink.com 1.10,2013-02-02 13:15:00,
2013-02-02 08:30:00,12.6,7.0,30.28,South,186,0.0,6.0,78,0.00,,,0.00,weatherlink.com 1.10,2013-02-02 13:30:00,
2013-02-02 08:45:00,12.8,7.0,30.27,SW,215,2.0,5.0,79,0.00,,,0.00,weatherlink.com 1.10,2013-02-02 13:45:00,
2013-02-02 09:00:00,13.2,8.0,30.26,WSW,249,4.0,8.0,78,0.00,,,0.00,weatherlink.com 1.10,2013-02-02 14:00:00,
2013-02-02 09:15:00,13.8,8.0,30.26,West,259,3.0,9.0,78,0.00,,,0.00,weatherlink.com 1.10,2013-02-02 14:15:00,
2013-02-02 09:30:00,14.2,8.0,30.25,South,180,5.0,6.0,77,0.00,,,0.00,weatherlink.com 1.10,2013-02-02 14:30:00,
2013-02-02 09:46:00,14.8,9.0,30.25,SW,222,2.0,6.0,78,0.00,,,0.00,weatherlink.com 1.10,2013-02-02 14:46:00,
2013-02-02 10:01:00,15.2,10.0,30.24,SW,223,1.0,9.0,79,0.00,,,0.00,weatherlink.com 1.10,2013-02-02 15:01:00,
2013-02-02 10:16:00,15.3,10.0,30.23,WSW,257,4.0,10.0,79,0.00,,,0.00,weatherlink.com 1.10,2013-02-02 15:16:00,
2013-02-02 10:31:00,15.5,11.0,30.22,South,182,3.0,7.0,83,0.00,,,0.00,weatherlink.com 1.10,2013-02-02 15:31:00,
2013-02-02 10:46:00,15.7,11.0,30.22,WNW,288,1.0,6.0,83,0.00,,,0.00,weatherlink.com 1.10,2013-02-02 15:46:00,
2013-02-02 11:01:00,16.0,12.0,30.21,SSW,205,0.0,6.0,84,0.00,,,0.00,weatherlink.com 1.10,2013-02-02 16:01:00,
2013-02-02 11:16:00,16.7,13.0,30.20,SSW,198,5.0,8.0,84,0.00,,,0.00,weatherlink.com 1.10,2013-02-02 16:16:00,
2013-02-02 11:31:00,17.2,13.0,30.19,SW,215,3.0,9.0,83,0.00,,,0.00,weatherlink.com 1.10,2013-02-02 16:31:00,
2013-02-02 11:46:00,18.2,14.0,30.17,West,279,2.0,5.0,84,0.00,,,0.00,weatherlink.com 1.10,2013-02-02 16:46:00,
2013-02-02 12:01:00,18.6,14.0,30.16,SW,236,5.0,7.0,82,0.00,,,0.00,weatherlink.com 1.10,2013-02-02 17:01:00,
2013-02-02 12:16:00,19.0,14.0,30.15,South,177,2.0,9.0,82,0.00,,,0.00,weatherlink.com 1.10,2013-02-02 17:16:00,
2013-02-02 12:31:00,19.5,15.0,30.14,West,280,1.0,7.0,82,0.00,,,0.00,weatherlink.com 1.10,2013-02-02 17:31:00,
2013-02-02 12:46:00,20.3,16.0,30.13,SW,227,2.0,7.0,82,0.00,,,0.00,weatherlink.com 1.10,2013-02-02 17:46:00,
2013-02-02 13:04:00,20.6,16.0,30.11,SW,227,2.0,8.0,82,0.00,,,0.00,weatherlink.com 1.10,2013-02-02 18:04:00,
2013-02-02 13:16:00,21.3,17.0,30.10,SSW,194,1.0,9.0,82,0.00,,,0.00,weatherlink.com 1.10,2013-02-02 18:16:00,
2013-02-02 13:31:00,22.0,17.0,30.09,SSE,165,3.0,6.0,81,0.00,,,0.00,weatherlink.com 1.10,2013-02-02 18:31:00,
2013-02-02 13:47:00,22.3,17.0,30.08,West,275,5.0,6.0,81,0.00,,,0.00,weatherlink.com 1.10,2013-02-02 18:47:00,
2013-02-02 14:01:00,22.2,18.0,30.07,WSW,250,1.0,5.0,83,0.00,,,0.00,weatherlink.com 1.10,2013-02-02 19:01:00,
2013-02-02 14:16:00,22.6,18.0,30.06,SW,227,0.0,6.0,83,0.00,,,0.00,weatherlink.com 1.10,2013-02-02 19:16:00,
2013-02-02 14:32:00,22.9,19.0,30.06,SSW,209,1.0,4.0,83,0.00,,,0.00,weatherlink.com 1.10,2013-02-02 19:32:00,
2013-02-02 14:47:00,22.9,19.0,30.05,SW,215,2.0,5.0,85,0.00,,,0.00,weatherlink.com 1.10,2013-02-02 19:47:00,
2013-02-02 15:02:00,22.7,19.0,30.05,SSW,198,2.0,6.0,86,0.00,,,0.00,weatherlink.com 1.10,2013-02-02 20:02:00,
2013-02-02 15:17:00,23.0,19.0,30.05,South,184,1.0,5.0,86,0.00,,,0.00,weatherlink.com 1.10,2013-02-02 20:17:00,
2013-02-02 15:32:00,22.8,19.0,30.04,West,264,2.0,5.0,86,0.00,,,0.00,weatherlink.com 1.10,2013-02-02 20:32:00,
2013-02-02 15:47:00,22.7,19.0,30.04,WNW,298,0.0,5.0,86,0.00,,,0.00,weatherlink.com 1.10,2013-02-02 20:47:00,
2013-02-02 16:02:00,22.7,19.0,30.04,SW,220,0.0,4.0,87,0.00,,,0.00,weatherlink.com 1.10,2013-02-02 21:02:00,
2013-02-02 16:17:00,22.8,20.0,30.04,West,260,1.0,5.0,88,0.00,,,0.00,weatherlink.com 1.10,2013-02-02 21:17:00,
2013-02-02 16:32:00,23.0,20.0,30.04,SE,144,1.0,5.0,87,0.00,,,0.00,weatherlink.com 1.10,2013-02-02 21:32:00,
2013-02-02 16:47:00,22.9,20.0,30.04,WSW,256,2.0,4.0,88,0.00,,,0.00,weatherlink.com 1.10,2013-02-02 21:47:00,
2013-02-02 17:02:00,22.8,20.0,30.04,WSW,243,1.0,4.0,88,0.00,,,0.00,weatherlink.com 1.10,2013-02-02 22:02:00,
2013-02-02 17:17:00,22.8,20.0,30.04,SSW,207,0.0,2.0,89,0.00,,,0.00,weatherlink.com 1.10,2013-02-02 22:17:00,
2013-02-02 17:32:00,22.7,20.0,30.04,SSW,207,2.0,3.0,89,0.00,,,0.00,weatherlink.com 1.10,2013-02-02 22:32:00,
2013-02-02 17:47:00,22.6,20.0,30.04,SW,232,0.0,3.0,90,0.00,,,0.00,weatherlink.com 1.10,2013-02-02 22:47:00,
2013-02-02 18:02:00,22.5,20.0,30.04,SW,233,0.0,0.0,90,0.00,,,0.00,weatherlink.com 1.10,2013-02-02 23:02:00,
2013-02-02 18:19:00,22.6,20.0,30.04,SW,220,0.0,2.0,91,0.00,,,0.00,weatherlink.com 1.10,2013-02-02 23:19:00,
2013-02-02 18:47:00,22.5,20.0,30.04,WSW,242,0.0,1.0,91,0.00,,,0.00,weatherlink.com 1.10,2013-02-02 23:47:00,
2013-02-02 19:02:00,22.6,21.0,30.04,WSW,242,0.0,0.0,92,0.00,,,0.00,weatherlink.com 1.10,2013-02-03 00:02:00,
2013-02-02 19:17:00,22.6,21.0,30.04,WSW,242,0.0,0.0,92,0.00,,,0.00,weatherlink.com 1.10,2013-02-03 00:17:00,
2013-02-02 19:32:00,22.6,21.0,30.04,WSW,242,0.0,1.0,92,0.00,,,0.00,weatherlink.com 1.10,2013-02-03 00:32:00,
2013-02-02 19:47:00,22.6,21.0,30.04,WSW,242,0.0,1.0,92,0.00,,,0.00,weatherlink.com 1.10,2013-02-03 00:47:00,
2013-02-02 20:17:00,22.7,21.0,30.04,SSW,210,0.0,2.0,92,0.00,,,0.00,weatherlink.com 1.10,2013-02-03 01:17:00,
2013-02-02 20:32:00,22.6,21.0,30.04,SW,223,0.0,2.0,92,0.00,,,0.00,weatherlink.com 1.10,2013-02-03 01:32:00,
2013-02-02 20:47:00,22.6,20.0,30.04,SW,229,1.0,2.0,91,0.00,,,0.00,weatherlink.com 1.10,2013-02-03 01:47:00,
2013-02-02 21:02:00,22.6,20.0,30.04,SW,222,0.0,2.0,91,0.00,,,0.00,weatherlink.com 1.10,2013-02-03 02:02:00,
2013-02-02 21:17:00,22.7,21.0,30.04,West,263,0.0,2.0,91,0.00,,,0.00,weatherlink.com 1.10,2013-02-03 02:17:00,
2013-02-02 21:32:00,22.7,21.0,30.04,SW,220,0.0,2.0,91,0.00,,,0.00,weatherlink.com 1.10,2013-02-03 02:32:00,
2013-02-02 21:47:00,22.7,21.0,30.04,West,280,0.0,4.0,91,0.00,,,0.00,weatherlink.com 1.10,2013-02-03 02:47:00,
2013-02-02 22:02:00,22.7,21.0,30.04,WSW,238,0.0,2.0,91,0.00,,,0.00,weatherlink.com 1.10,2013-02-03 03:02:00,
2013-02-02 22:17:00,22.7,21.0,30.03,SW,232,0.0,1.0,91,0.00,,,0.00,weatherlink.com 1.10,2013-02-03 03:17:00,
2013-02-02 22:32:00,22.8,21.0,30.03,SW,236,0.0,2.0,91,0.00,,,0.00,weatherlink.com 1.10,2013-02-03 03:32:00,
2013-02-02 22:49:00,22.8,21.0,30.02,SW,236,0.0,1.0,91,0.00,,,0.00,weatherlink.com 1.10,2013-02-03 03:49:00,
2013-02-02 23:02:00,22.8,21.0,30.02,SW,221,0.0,3.0,92,0.00,,,0.00,weatherlink.com 1.10,2013-02-03 04:02:00,
2013-02-02 23:17:00,22.8,21.0,30.02,SSW,195,0.0,2.0,92,0.00,,,0.00,weatherlink.com 1.10,2013-02-03 04:17:00,
2013-02-02 23:47:00,22.8,21.0,30.02,WSW,242,0.0,2.0,91,0.00,,,0.00,weatherlink.com 1.10,2013-02-03 04:47:00,